Weather in Salmanovka

Russia / Ulyanovsk Oblast     54°28′13″N   48°16′07″E
temp.,
°C
wind,
m/s
gust,
m/s
humid.,
%
clouds,
%
prec.,
mm/h
press.,
hPa
HPBL,
m
23 september, thu
thu2301:00+9se698698 0.0 1019442
04:00+9se51091100 0.4 1019435
07:00+10ese61184100 0.0 1019430
10:00+10se61181100 0.3 1020443
13:00+11ese61078100 0.2 1019470
16:00+11ese81377100 0.3 1019574
19:00+9se81191100 1.0 1019616
22:00+9se71389100 3.4 1018828
24 september, fri
fri2401:00+9se61393100 4.1 1016703
04:00+9se61294100 6.1 1015689
07:00+10se61189100 0.7 1014640
10:00+11se61177100 0.9 1013617
13:00+13sse61066100 0.0 1012658
16:00+11sse71193100 1.8 1012564
19:00+10sse91589100 4.2 1014939
22:00+9se5890100 6.4 1013465
25 september, sat
sat2501:00+9se6886100 0.1 1012473
04:00+9ese4794100 0.9 1011471
07:00+9ese3585100 0.1 1010253
10:00+9ese3481100 0.1 1010453
13:00+10e3379100 0.0 1010410
16:00+10ne2281100 0.0 1010410
19:00+10nne2383100 0.0 101199
22:00+10nne2286100 0.0 101096
26 september, sun
sun2601:00+9n2286100 0.0 1010102
04:00+9n2286100 0.0 1010104
07:00+8n2385100 0.0 1010108
10:00+9n2278100 0.0 1009228
13:00+11n226999 0.0 1009435
16:00+13n2363100 0.0 1009701
19:00+10n2377100 0.0 100988
22:00+10nne2379100 0.0 100983
27 september, mon
mon2701:00+8nnw3686100 0.0 1009177
04:00+8n5894100 0.0 1010283
07:00+9nne61080100 0.0 1010520
10:00+10ene7976100 0.1 1012710
13:00+9ene81087100 1.9 1014776
16:00+8ene7987100 3.2 1017878
19:00+8ne7106698 0.1 1019625
22:00+7ne7116827 0.1 1021448